Location: Sungai Dangang
(2.7500°N, 113.8333°E)
Time: 18:33:18
(UTC+00:00)

ADEOS - Pass Details

Date: 16 May 2021
Orbit: 792 x 795 km, 98.9° (Epoch: 19 June)

Event Time Altitude Azimuth Distance (km) Brightness Sun altitude
Rises 21:13:08 0° 6° (N) 3,275 7.1 -15.0°
Reaches altitude 10° 21:15:28 10° 3° (N) 2,348 6.3 -14.5°
Maximum altitude 21:20:35 63° 283° (WNW) 879 3.6 -13.3°
Drops below altitude 10° 21:25:43 10° 202° (SSW) 2,356 5.6 -12.1°
Enters shadow 21:27:51 - 199° (SSW) 3,195 6.3 -11.6°
